Regional Weather Roundup
Issued by NWS Columbia, SC

Home | Current Version | Previous Version | Text Only | Print | Product List | Glossary On
Versions: 1 2 3 4 5 6 7 8 9 10 11 12 13 14 15 16 17 18 19 20 21 22 23 24 25 26
000
ASUS42 KCAE 271010
RWRCAE
REGIONAL WEATHER ROUNDUP
NATIONAL WEATHER SERVICE COLUMBIA SC
600 AM EDT FRI MAY 27 2016

NOTE: "FAIR" INDICATES FEW OR NO CLOUDS BELOW 12,000 FEET WITH NO
SIGNIFICANT WEATHER AND/OR OBSTRUCTIONS TO VISIBILITY.

NOT ALL STATIONS ARE QUALITY CONTROLLED BY THE NATIONAL
WEATHER SERVICE. USE DATA WITH CAUTION...ESPECIALLY
DEWPOINT OBSERVATIONS.

SCZ001>056-GAZ040-063>065-077-271100-
...UPSTATE SOUTH CAROLINA...

CITY           SKY/WX    TMP DP  RH WIND       PRES   REMARKS
ANDERSON       PTCLDY    66  62  87 CALM      30.13R
LIBERTY        MOSUNNY   63  62  97 CALM      30.13R
SPARTANBURG    CLEAR     63  59  88 CALM      30.13R
CLEMSON        PTCLDY    68  65  90 CALM      30.14R
GREENVILLE     CLEAR     68  62  81 S5        30.14R
GREENWOOD      CLEAR     62  57  83 CALM      30.14R
GREER          CLEAR     65  62  90 S6        30.12S
ROCK HILL      CLEAR     63  60  90 S5        30.14R
CHESTER        SUNNY     63  59  88 CALM      30.14S
LAURENS        SUNNY     64  59  82 S5        30.12S


...CENTRAL SOUTH CAROLINA...

CITY           SKY/WX    TMP DP  RH WIND       PRES   REMARKS
COLUMBIA APT   CLEAR     67  61  81 CALM      30.11S
COLUMBIA OWENS CLEAR     67  61  81 CALM      30.12F
MCENTIRE ANGB  CLEAR     61  60  97 CALM      30.13R
ORANGEBURG     PTCLDY    63  60  90 CALM      30.12S
SUMTER SHAW    CLEAR     63  60  89 E2        30.10S
NEWBERRY       SUNNY     63  61  94 CALM      30.16R
AIKEN          FAIR      63  59  88 CALM      30.15S
BARNWELL       FAIR      64  64 100 CALM      30.12F
MANNING        FAIR      61  59  94 CALM      30.13S
LANCASTER      SUNNY     64  63  94 CALM      30.14R
WINNSBORO      SUNNY     64  61  88 CALM      30.13R


...EASTERN AND COASTAL SOUTH CAROLINA...

CITY           SKY/WX    TMP DP  RH WIND       PRES   REMARKS
N MYRTLE BCH   CLEAR     63  62  97 NE6       30.13S
CONWAY         FAIR      59  57  94 CALM      30.14S
MARION         CLOUDY    64  63  94 CALM      30.14R
HARTSVILLE     FAIR      61  59  94 CALM      30.13S
FLORENCE       CLEAR     64  61  90 CALM      30.14R
DARLINGTON     CLEAR     64  62  93 CALM      30.14S
CHARLESTON APT PTCLDY    65  62  90 CALM      30.12S
MOUNT PLEASANT FAIR      63  61  94 CALM      30.13S FOG
WALTERBORO     SUNNY     63  63 100 CALM      30.13R
BEAUFORT       CLEAR     66  63  90 CALM      30.12R


...EASTERN GEORGIA...

CITY           SKY/WX    TMP DP  RH WIND       PRES   REMARKS
AUGUSTA BUSH F CLEAR     63  60  90 CALM      30.11R
AUGUSTA DANIEL CLEAR     68  59  73 CALM      30.13R
THOMSON        CLOUDY    71  64  77 CALM      30.15S
WASHINGTON     FAIR      64  61  88 SE5       30.11R
CLAXTON        FAIR      60  60 100 CALM      30.10S
SYLVANIA       MOSUNNY   65  63  93 CALM      30.11F
STATESBORO     CLEAR     63  63 100 CALM      30.10S
SAVANNAH       PTCLDY    63  61  93 CALM      30.11R


...SOUTHERN NORTH CAROLINA...

CITY           SKY/WX    TMP DP  RH WIND       PRES   REMARKS
CHARLOTTE      PTCLDY    66  59  78 S5        30.13S
WADESBORO      MOSUNNY   64  57  76 CALM      30.13S
ROCKINGHAM     CLOUDY    67  61  83 S5        30.13F
RUTHERFORDTON  PTCLDY    62  62 100 CALM      30.14S FOG
ASHEVILLE      FOG       59  57  93 CALM      30.18R VSB 3/4

$$




USA.gov is the U.S. government's official web portal to all federal, state and local government web resources and services.